QPF
0.00 0.00 0.00 0.00 0.00 0.00 0.00 0.00 0.00 0.00 0.00 0.00 0.00 0.00 0.00 0.00 0.00 0.00 0.00 0.00 0.00 0.00 0.00 0.00 0.00 0.00 0.00 0.00 0.00 0.00 0.00 0.00 0.00 0.00 0.00 0.00 0.00 0.00 0.00 0.00 0.00 0.00 0.00 0.00
0.00 0.00 0.00 0.00 0.00 0.00 0.00 0.00 0.00 0.00 0.00 0.00 0.00 0.00 0.00 0.00 0.00 0.00 0.00 0.00 0.00 0.00 0.00 0.00 0.00 0.00 0.00 0.00 0.00 0.00 0.00 0.00 0.00 0.00 0.00 0.00 0.00 0.00 0.00 0.00 0.00 0.00 0.00 0.00
0.00 0.00 0.00 0.00 0.00 0.00 0.00 0.00 0.00 0.00 0.00 0.00 0.00 0.00 0.00 0.00 0.00 0.00 0.00 0.00 0.00 0.00 0.00 0.00 0.00 0.00 0.00 0.00 0.00 0.00 0.00 0.00 0.00 0.00 0.00 0.00 0.00 0.00 0.00 0.00 0.00 0.00 0.00 0.00
0.00 0.00 0.00 0.00 0.00 0.00 0.00 0.00 0.00 0.00 0.00 0.00 0.00 0.00 0.00 0.00 0.00 0.00 0.00 0.00 0.00 0.00 0.00 0.00 0.00 0.00 0.00 0.00 0.00 0.00 0.00 0.00 0.00 0.00 0.00 0.00 0.00 0.00 0.00 0.00 0.00 0.00 0.00 0.00
0.01 0.01 0.00 0.00 0.00 0.00 0.00 0.00 0.00 0.00 0.00 0.00 0.00 0.00 0.00 0.00 0.00 0.00 0.00 0.00 0.00 0.00 0.00 0.00 0.00 0.00 0.00 0.00 0.00 0.00 0.00 0.00 0.00 0.00 0.00 0.00 0.00 0.00 0.00 0.00 0.00 0.00 0.00 0.00
0.01 0.01 0.00 0.00 0.00 0.00 0.00 0.00 0.00 0.00 0.00 0.00 0.00 0.00 0.00 0.00 0.00 0.00 0.00 0.00 0.00 0.00 0.00 0.00 0.00 0.00 0.00 0.00 0.00 0.00 0.00 0.00 0.00 0.00 0.00 0.00 0.00 0.00 0.00 0.00 0.00 0.00 0.00 0.00
0.01 0.01 0.00 0.00 0.00 0.00 0.00 0.00 0.00 0.00 0.00 0.00 0.00 0.00 0.00 0.00 0.00 0.00 0.00 0.00 0.00 0.00 0.00 0.00 0.00 0.00 0.00 0.00 0.00 0.00 0.00 0.00 0.00 0.00 0.00 0.00 0.00 0.00 0.00 0.00 0.00 0.00 0.00 0.00
0.01 0.02 0.00 0.01 0.01 0.00 0.00 0.00 0.00 0.00 0.00 0.00 0.00 0.00 0.00 0.00 0.00 0.00 0.00 0.00 0.00 0.00 0.00 0.00 0.00 0.00 0.00 0.00 0.00 0.00 0.00 0.00 0.00 0.00 0.00 0.00 0.00 0.00 0.00 0.00 0.00 0.01 0.01 0.00
0.01 0.01 0.00 0.00 0.00 0.01 0.01 0.01 0.00 0.00 0.00 0.00 0.00 0.00 0.00 0.00 0.00 0.00 0.00 0.00 0.00 0.00 0.00 0.00 0.00 0.00 0.00 0.00 0.00 0.00 0.00 0.00 0.00 0.00 0.00 0.00 0.00 0.00 0.00 0.00 0.00 0.01 0.01 0.01
0.00 0.00 0.00 0.00 0.00 0.00 0.00 0.01 0.01 0.00 0.00 0.00 0.00 0.00 0.00 0.00 0.00 0.00 0.00 0.00 0.00 0.00 0.00 0.00 0.00 0.00 0.00 0.00 0.00 0.00 0.00 0.00 0.00 0.00 0.00 0.00 0.00 0.00 0.00 0.00 0.00 0.01 0.01 0.01
0.00 0.00 0.00 0.00 0.00 0.00 0.00 0.00 0.00 0.00 0.00 0.00 0.00 0.00 0.00 0.00 0.00 0.00 0.00 0.00 0.00 0.00 0.00 0.00 0.00 0.00 0.00 0.00 0.00 0.00 0.00 0.00 0.00 0.00 0.00 0.00 0.00 0.00 0.00 0.00 0.00 0.00 0.00 0.01
0.00 0.00 0.00 0.00 0.00 0.00 0.00 0.00 0.00 0.00 0.00 0.00 0.00 0.00 0.00 0.00 0.00 0.00 0.00 0.00 0.00 0.00 0.00 0.00 0.00 0.00 0.00 0.00 0.00 0.00 0.00 0.00 0.00 0.00 0.00 0.00 0.00 0.00 0.00 0.00 0.00 0.00 0.00 0.00
0.00 0.00 0.00 0.00 0.00 0.00 0.00 0.00 0.00 0.00 0.00 0.00 0.00 0.00 0.00 0.00 0.00 0.00 0.00 0.00 0.00 0.00 0.00 0.00 0.00 0.00 0.00 0.00 0.00 0.00 0.00 0.00 0.00 0.00 0.00 0.00 0.00 0.00 0.00 0.00 0.00 0.00 0.00 0.00
0.00 0.00 0.00 0.00 0.00 0.00 0.00 0.00 0.01 0.01 0.00 0.00 0.00 0.00 0.00 0.00 0.00 0.00 0.00 0.00 0.00 0.00 0.00 0.00 0.00 0.00 0.00 0.00 0.00 0.00 0.00 0.00 0.00 0.00 0.00 0.00 0.00 0.00 0.00 0.01 0.01 0.01 0.01 0.00
0.00 0.00 0.00 0.00 0.00 0.00 0.00 0.01 0.01 0.01 0.01 0.01 0.01 0.01 0.00 0.00 0.00 0.00 0.00 0.00 0.00 0.00 0.00 0.00 0.00 0.00 0.00 0.00 0.00 0.00 0.00 0.00 0.00 0.00 0.00 0.00 0.00 0.00 0.01 0.02 0.02 0.02 0.01 0.02
0.00 0.00 0.00 0.00 0.00 0.00 0.01 0.01 0.01 0.01 0.01 0.01 0.01 0.01 0.00 0.00 0.00 0.00 0.00 0.00 0.00 0.00 0.00 0.00 0.00 0.00 0.00 0.00 0.00 0.00 0.00 0.00 0.00 0.00 0.00 0.00 0.00 0.01 0.02 0.01 0.01 0.02 0.03 0.02
0.00 0.00 0.00 0.00 0.00 0.00 0.00 0.01 0.01 0.01 0.01 0.01 0.01 0.01 0.01 0.01 0.00 0.00 0.00 0.00 0.00 0.00 0.00 0.00 0.00 0.00 0.00 0.00 0.00 0.00 0.00 0.00 0.00 0.00 0.00 0.00 0.00 0.01 0.02 0.01 0.01 0.02 0.03 0.02
0.00 0.00 0.00 0.00 0.00 0.00 0.01 0.01 0.01 0.01 0.01 0.01 0.01 0.01 0.01 0.01 0.01 0.01 0.00 0.00 0.00 0.00 0.00 0.00 0.00 0.00 0.00 0.00 0.00 0.00 0.00 0.00 0.00 0.00 0.00 0.00 0.00 0.01 0.02 0.01 0.01 0.02 0.03 0.02
0.00 0.00 0.00 0.00 0.00 0.00 0.01 0.01 0.01 0.01 0.01 0.01 0.01 0.01 0.01 0.01 0.01 0.01 0.01 0.01 0.00 0.00 0.00 0.00 0.00 0.00 0.00 0.00 0.00 0.00 0.00 0.00 0.00 0.00 0.00 0.00 0.01 0.02 0.01 0.01 0.01 0.01 0.02 0.04
0.00 0.00 0.00 0.00 0.00 0.00 0.00 0.00 0.00 0.00 0.00 0.01 0.01 0.01 0.01 0.01 0.01 0.01 0.00 0.00 0.00 0.00 0.00 0.00 0.00 0.00 0.00 0.00 0.00 0.00 0.00 0.00 0.00 0.00 0.00 0.01 0.01 0.02 0.02 0.02 0.01 0.01 0.02 0.02
0.00 0.00 0.00 0.00 0.00 0.00 0.00 0.00 0.00 0.00 0.00 0.01 0.01 0.01 0.01 0.01 0.01 0.00 0.00 0.00 0.00 0.00 0.00 0.00 0.00 0.00 0.00 0.00 0.00 0.00 0.00 0.00 0.00 0.00 0.00 0.00 0.01 0.01 0.02 0.02 0.02 0.02 0.02 0.02
0.00 0.00 0.00 0.00 0.00 0.00 0.00 0.00 0.00 0.00 0.00 0.01 0.01 0.01 0.00 0.00 0.00 0.00 0.00 0.00 0.00 0.00 0.00 0.00 0.00 0.00 0.00 0.00 0.00 0.00 0.00 0.00 0.00 0.00 0.00 0.00 0.01 0.01 0.02 0.02 0.03 0.03 0.03 0.02
0.00 0.00 0.00 0.00 0.00 0.00 0.00 0.00 0.00 0.00 0.00 0.00 0.00 0.00 0.00 0.00 0.00 0.00 0.00 0.00 0.00 0.00 0.00 0.00 0.00 0.00 0.00 0.00 0.00 0.00 0.00 0.00 0.00 0.00 0.00 0.00 0.01 0.01 0.01 0.01 0.02 0.03 0.03 0.02
0.00 0.00 0.00 0.00 0.00 0.00 0.00 0.00 0.00 0.00 0.00 0.00 0.00 0.00 0.00 0.00 0.00 0.00 0.00 0.00 0.00 0.00 0.00 0.00 0.00 0.00 0.00 0.00 0.00 0.00 0.00 0.00 0.00 0.00 0.00 0.01 0.01 0.00 0.01 0.01 0.02 0.02 0.01 0.01
0.00 0.00 0.00 0.00 0.00 0.00 0.00 0.00 0.00 0.00 0.00 0.00 0.00 0.00 0.00 0.00 0.00 0.00 0.00 0.00 0.00 0.00 0.00 0.01 0.01 0.01 0.01 0.01 0.01 0.01 0.01 0.01 0.00 0.00 0.01 0.01 0.01 0.00 0.01 0.01 0.01 0.01 0.01 0.01
0.00 0.00 0.00 0.00 0.00 0.00 0.00 0.00 0.00 0.00 0.00 0.00 0.00 0.00 0.00 0.00 0.00 0.00 0.00 0.01 0.00 0.01 0.01 0.01 0.01 0.01 0.01 0.01 0.01 0.01 0.01 0.01 0.00 0.00 0.01 0.01 0.00 0.01 0.01 0.01 0.01 0.01 0.02 0.02
0.00 0.00 0.00 0.00 0.00 0.00 0.00 0.00 0.00 0.00 0.00 0.01 0.01 0.00 0.00 0.01 0.01 0.00 0.01 0.01 0.01 0.02 0.02 0.01 0.01 0.01 0.02 0.02 0.02 0.02 0.01 0.01 0.01 0.01 0.01 0.01 0.01 0.01 0.01 0.01 0.01 0.01 0.01 0.01
MSLP
1011.58 1011.63 1011.65 1011.66 1011.66 1011.64 1011.58 1011.49 1011.35 1011.17 1010.96 1010.74 1010.56 1010.44 1010.42 1010.51 1010.72 1011.04 1011.45 1011.91 1012.38 1012.83 1013.23 1013.56 1013.82 1014.00 1014.12 1014.19 1014.23 1014.24 1014.22 1014.19 1014.13 1014.05 1013.93 1013.79 1013.62 1013.44 1013.25 1013.06 1012.87 1012.70 1012.53 1012.37
1011.57 1011.58 1011.53 1011.44 1011.32 1011.18 1011.01 1010.83 1010.64 1010.45 1010.27 1010.12 1010.02 1009.99 1010.04 1010.19 1010.43 1010.76 1011.15 1011.57 1012.01 1012.42 1012.80 1013.12 1013.39 1013.60 1013.76 1013.87 1013.94 1013.98 1013.99 1013.97 1013.91 1013.81 1013.68 1013.52 1013.33 1013.12 1012.90 1012.68 1012.46 1012.26 1012.07 1011.89
1011.55 1011.53 1011.42 1011.24 1011.02 1010.76 1010.50 1010.25 1010.02 1009.82 1009.67 1009.57 1009.54 1009.59 1009.71 1009.90 1010.17 1010.49 1010.85 1011.23 1011.62 1011.99 1012.34 1012.65 1012.93 1013.16 1013.36 1013.51 1013.63 1013.70 1013.74 1013.73 1013.67 1013.56 1013.41 1013.22 1013.00 1012.76 1012.51 1012.26 1012.02 1011.79 1011.57 1011.37
1011.51 1011.44 1011.27 1011.02 1010.71 1010.36 1010.03 1009.71 1009.45 1009.25 1009.12 1009.07 1009.10 1009.20 1009.38 1009.61 1009.89 1010.21 1010.54 1010.89 1011.24 1011.58 1011.90 1012.21 1012.49 1012.74 1012.97 1013.16 1013.31 1013.42 1013.47 1013.46 1013.40 1013.27 1013.10 1012.88 1012.63 1012.37 1012.09 1011.81 1011.54 1011.29 1011.05 1010.83
1011.39 1011.27 1011.05 1010.73 1010.34 1009.93 1009.53 1009.17 1008.88 1008.68 1008.57 1008.55 1008.63 1008.79 1009.00 1009.27 1009.57 1009.89 1010.22 1010.55 1010.88 1011.20 1011.51 1011.81 1012.11 1012.38 1012.64 1012.85 1013.03 1013.14 1013.20 1013.19 1013.11 1012.96 1012.76 1012.51 1012.22 1011.93 1011.62 1011.32 1011.03 1010.76 1010.51 1010.27
1011.14 1010.98 1010.70 1010.33 1009.90 1009.44 1009.00 1008.60 1008.29 1008.08 1007.98 1007.99 1008.10 1008.29 1008.55 1008.85 1009.17 1009.51 1009.85 1010.19 1010.52 1010.85 1011.17 1011.49 1011.80 1012.10 1012.37 1012.61 1012.79 1012.91 1012.95 1012.91 1012.80 1012.62 1012.37 1012.09 1011.77 1011.44 1011.12 1010.80 1010.50 1010.22 1009.96 1009.71
1010.76 1010.56 1010.25 1009.84 1009.38 1008.89 1008.41 1008.00 1007.67 1007.45 1007.35 1007.37 1007.49 1007.71 1008.00 1008.33 1008.69 1009.06 1009.42 1009.79 1010.15 1010.51 1010.86 1011.21 1011.56 1011.88 1012.17 1012.41 1012.59 1012.69 1012.71 1012.64 1012.48 1012.25 1011.96 1011.63 1011.28 1010.92 1010.58 1010.26 1009.95 1009.67 1009.42 1009.17
1010.30 1010.06 1009.73 1009.31 1008.83 1008.33 1007.85 1007.42 1007.07 1006.84 1006.72 1006.73 1006.86 1007.09 1007.39 1007.74 1008.13 1008.53 1008.94 1009.35 1009.76 1010.16 1010.57 1010.96 1011.34 1011.69 1012.00 1012.24 1012.41 1012.49 1012.47 1012.35 1012.14 1011.86 1011.52 1011.14 1010.76 1010.38 1010.02 1009.70 1009.40 1009.14 1008.89 1008.67
1009.82 1009.58 1009.25 1008.83 1008.36 1007.87 1007.38 1006.94 1006.58 1006.32 1006.19 1006.17 1006.28 1006.49 1006.78 1007.14 1007.54 1007.98 1008.42 1008.88 1009.34 1009.80 1010.25 1010.69 1011.11 1011.49 1011.81 1012.05 1012.20 1012.25 1012.19 1012.02 1011.76 1011.42 1011.03 1010.62 1010.20 1009.81 1009.45 1009.13 1008.85 1008.61 1008.40 1008.20
1009.44 1009.22 1008.91 1008.53 1008.08 1007.60 1007.12 1006.67 1006.30 1006.01 1005.83 1005.78 1005.84 1006.01 1006.27 1006.62 1007.01 1007.45 1007.92 1008.41 1008.91 1009.41 1009.91 1010.39 1010.83 1011.23 1011.55 1011.79 1011.92 1011.94 1011.84 1011.63 1011.33 1010.94 1010.52 1010.07 1009.63 1009.23 1008.87 1008.56 1008.31 1008.10 1007.93 1007.77
1009.29 1009.10 1008.83 1008.48 1008.07 1007.61 1007.14 1006.69 1006.30 1005.97 1005.75 1005.63 1005.63 1005.74 1005.95 1006.25 1006.61 1007.04 1007.50 1007.99 1008.50 1009.02 1009.53 1010.02 1010.48 1010.88 1011.20 1011.43 1011.54 1011.54 1011.41 1011.17 1010.83 1010.42 1009.96 1009.50 1009.05 1008.64 1008.29 1008.00 1007.78 1007.60 1007.47 1007.35
1009.42 1009.28 1009.05 1008.75 1008.37 1007.94 1007.48 1007.03 1006.61 1006.25 1005.97 1005.79 1005.71 1005.75 1005.88 1006.11 1006.41 1006.77 1007.19 1007.65 1008.13 1008.63 1009.13 1009.60 1010.05 1010.43 1010.74 1010.95 1011.05 1011.03 1010.89 1010.63 1010.28 1009.86 1009.39 1008.92 1008.47 1008.06 1007.72 1007.45 1007.25 1007.11 1007.01 1006.92
1009.83 1009.74 1009.55 1009.29 1008.94 1008.53 1008.09 1007.63 1007.19 1006.79 1006.46 1006.21 1006.06 1006.01 1006.06 1006.20 1006.41 1006.70 1007.04 1007.42 1007.84 1008.28 1008.72 1009.15 1009.55 1009.90 1010.18 1010.37 1010.46 1010.43 1010.29 1010.03 1009.69 1009.27 1008.82 1008.35 1007.91 1007.52 1007.18 1006.93 1006.74 1006.62 1006.53 1006.47
1010.46 1010.40 1010.25 1010.01 1009.68 1009.29 1008.84 1008.38 1007.93 1007.50 1007.13 1006.83 1006.61 1006.49 1006.45 1006.49 1006.61 1006.79 1007.03 1007.31 1007.63 1007.97 1008.32 1008.67 1009.00 1009.30 1009.53 1009.70 1009.78 1009.75 1009.62 1009.39 1009.08 1008.69 1008.26 1007.82 1007.39 1007.01 1006.68 1006.43 1006.24 1006.12 1006.04 1005.98
1011.19 1011.15 1011.01 1010.77 1010.46 1010.07 1009.63 1009.17 1008.70 1008.27 1007.87 1007.54 1007.28 1007.09 1006.98 1006.93 1006.95 1007.02 1007.13 1007.29 1007.48 1007.70 1007.94 1008.18 1008.42 1008.65 1008.84 1008.97 1009.04 1009.03 1008.93 1008.73 1008.46 1008.12 1007.73 1007.32 1006.92 1006.54 1006.22 1005.96 1005.76 1005.62 1005.52 1005.45
1011.88 1011.84 1011.69 1011.45 1011.13 1010.74 1010.31 1009.85 1009.40 1008.97 1008.58 1008.23 1007.95 1007.72 1007.55 1007.43 1007.36 1007.32 1007.31 1007.34 1007.39 1007.47 1007.58 1007.71 1007.84 1007.99 1008.12 1008.22 1008.28 1008.28 1008.21 1008.07 1007.85 1007.56 1007.22 1006.85 1006.47 1006.11 1005.79 1005.51 1005.29 1005.12 1004.99 1004.89
1012.44 1012.37 1012.21 1011.95 1011.61 1011.23 1010.80 1010.36 1009.94 1009.53 1009.16 1008.83 1008.55 1008.31 1008.10 1007.93 1007.78 1007.64 1007.52 1007.42 1007.33 1007.27 1007.24 1007.24 1007.28 1007.33 1007.40 1007.47 1007.52 1007.53 1007.50 1007.40 1007.24 1007.01 1006.73 1006.40 1006.05 1005.71 1005.38 1005.08 1004.83 1004.62 1004.45 1004.31
1012.79 1012.69 1012.50 1012.22 1011.87 1011.49 1011.08 1010.67 1010.28 1009.91 1009.58 1009.29 1009.03 1008.79 1008.57 1008.36 1008.15 1007.93 1007.71 1007.49 1007.28 1007.09 1006.93 1006.81 1006.74 1006.70 1006.71 1006.74 1006.78 1006.80 1006.80 1006.74 1006.64 1006.46 1006.23 1005.95 1005.64 1005.30 1004.98 1004.67 1004.39 1004.14 1003.94 1003.76
1012.92 1012.79 1012.57 1012.27 1011.92 1011.55 1011.17 1010.80 1010.45 1010.14 1009.86 1009.61 1009.38 1009.16 1008.93 1008.70 1008.44 1008.16 1007.85 1007.53 1007.22 1006.91 1006.64 1006.42 1006.25 1006.13 1006.08 1006.07 1006.08 1006.11 1006.12 1006.11 1006.04 1005.92 1005.73 1005.49 1005.21 1004.90 1004.58 1004.26 1003.97 1003.70 1003.47 1003.27
1012.89 1012.72 1012.48 1012.17 1011.83 1011.47 1011.12 1010.80 1010.50 1010.24 1010.01 1009.80 1009.60 1009.40 1009.17 1008.92 1008.63 1008.30 1007.93 1007.54 1007.13 1006.75 1006.38 1006.07 1005.82 1005.64 1005.53 1005.48 1005.47 1005.48 1005.50 1005.50 1005.47 1005.38 1005.23 1005.03 1004.78 1004.49 1004.19 1003.88 1003.58 1003.31 1003.07 1002.86
1012.75 1012.56 1012.30 1011.99 1011.67 1011.33 1011.02 1010.73 1010.48 1010.26 1010.06 1009.88 1009.70 1009.51 1009.29 1009.02 1008.70 1008.34 1007.93 1007.49 1007.03 1006.59 1006.17 1005.80 1005.49 1005.26 1005.10 1005.00 1004.96 1004.96 1004.97 1004.97 1004.95 1004.88 1004.76 1004.59 1004.37 1004.11 1003.83 1003.55 1003.27 1003.01 1002.78 1002.58
1012.56 1012.35 1012.08 1011.79 1011.48 1011.17 1010.89 1010.63 1010.40 1010.21 1010.03 1009.86 1009.69 1009.49 1009.26 1008.98 1008.65 1008.27 1007.84 1007.38 1006.91 1006.44 1005.99 1005.60 1005.26 1005.00 1004.80 1004.68 1004.61 1004.58 1004.56 1004.55 1004.52 1004.46 1004.36 1004.21 1004.02 1003.80 1003.55 1003.30 1003.05 1002.82 1002.61 1002.43
1012.32 1012.11 1011.85 1011.56 1011.27 1010.99 1010.72 1010.48 1010.27 1010.08 1009.90 1009.72 1009.53 1009.32 1009.08 1008.79 1008.45 1008.07 1007.65 1007.21 1006.75 1006.30 1005.87 1005.48 1005.15 1004.87 1004.66 1004.52 1004.42 1004.36 1004.32 1004.28 1004.24 1004.17 1004.07 1003.94 1003.77 1003.59 1003.38 1003.17 1002.96 1002.77 1002.59 1002.44
1012.06 1011.83 1011.58 1011.31 1011.03 1010.76 1010.50 1010.26 1010.04 1009.83 1009.63 1009.43 1009.22 1008.99 1008.73 1008.44 1008.11 1007.76 1007.37 1006.97 1006.56 1006.16 1005.79 1005.44 1005.14 1004.89 1004.68 1004.53 1004.41 1004.32 1004.26 1004.19 1004.12 1004.04 1003.94 1003.82 1003.68 1003.52 1003.35 1003.18 1003.01 1002.86 1002.72 1002.60
1011.72 1011.50 1011.25 1010.99 1010.72 1010.45 1010.19 1009.93 1009.69 1009.45 1009.21 1008.98 1008.73 1008.48 1008.22 1007.94 1007.64 1007.33 1007.01 1006.68 1006.36 1006.05 1005.75 1005.48 1005.24 1005.03 1004.85 1004.70 1004.58 1004.47 1004.37 1004.28 1004.19 1004.09 1003.98 1003.86 1003.74 1003.61 1003.47 1003.34 1003.22 1003.10 1002.99 1002.89
1011.31 1011.08 1010.83 1010.58 1010.31 1010.03 1009.75 1009.48 1009.20 1008.92 1008.65 1008.38 1008.11 1007.85 1007.59 1007.33 1007.09 1006.84 1006.61 1006.38 1006.17 1005.96 1005.77 1005.60 1005.43 1005.28 1005.14 1005.01 1004.89 1004.77 1004.65 1004.54 1004.42 1004.30 1004.19 1004.07 1003.96 1003.85 1003.74 1003.64 1003.55 1003.46 1003.38 1003.29
1010.81 1010.58 1010.34 1010.08 1009.80 1009.51 1009.22 1008.91 1008.60 1008.29 1007.98 1007.69 1007.41 1007.15 1006.92 1006.71 1006.52 1006.37 1006.23 1006.12 1006.02 1005.94 1005.86 1005.79 1005.71 1005.62 1005.53 1005.42 1005.31 1005.18 1005.05 1004.92 1004.78 1004.65 1004.53 1004.41 1004.30 1004.21 1004.13 1004.05 1003.98 1003.91 1003.84 1003.76
Thickness
5761 5766 5764 5759 5758 5758 5751 5753 5747 5752 5754 5760 5760 5758 5756 5752 5747 5740 5734 5729 5724 5719 5714 5708 5702 5696 5691 5686 5681 5675 5669 5664 5659 5654 5648 5643 5637 5632 5627 5621 5617 5613 5609 5605
5752 5761 5761 5755 5759 5760 5758 5757 5755 5754 5755 5768 5766 5761 5754 5748 5743 5738 5734 5729 5724 5718 5712 5705 5700 5694 5688 5683 5677 5671 5665 5660 5655 5649 5643 5638 5632 5627 5621 5616 5611 5606 5602 5598
5744 5757 5752 5745 5760 5761 5760 5763 5759 5752 5758 5763 5756 5753 5750 5747 5742 5738 5735 5730 5724 5718 5711 5704 5698 5691 5684 5680 5674 5667 5662 5657 5651 5645 5639 5633 5627 5622 5616 5610 5605 5600 5596 5592
5746 5743 5724 5757 5775 5769 5762 5764 5766 5763 5763 5760 5758 5756 5754 5751 5744 5739 5735 5729 5723 5717 5710 5703 5696 5689 5682 5677 5671 5664 5658 5653 5647 5640 5634 5628 5622 5616 5610 5605 5599 5594 5590 5586
5741 5735 5740 5760 5767 5765 5757 5757 5769 5763 5761 5759 5756 5750 5749 5750 5746 5740 5735 5729 5722 5716 5709 5700 5693 5686 5679 5673 5668 5662 5656 5650 5643 5636 5629 5622 5616 5610 5604 5599 5593 5588 5585 5580
5738 5727 5727 5754 5769 5772 5761 5748 5769 5765 5759 5755 5748 5740 5747 5750 5744 5738 5733 5726 5719 5713 5705 5696 5689 5682 5674 5670 5665 5658 5653 5645 5638 5631 5624 5617 5611 5604 5599 5593 5588 5583 5580 5575
5735 5731 5746 5767 5768 5763 5740 5746 5766 5766 5761 5755 5749 5748 5749 5748 5741 5735 5728 5721 5715 5707 5700 5693 5686 5678 5670 5666 5660 5655 5648 5640 5633 5626 5619 5613 5606 5600 5594 5588 5583 5578 5574 5571
5736 5728 5738 5762 5761 5753 5754 5762 5764 5762 5761 5755 5753 5750 5745 5741 5735 5729 5723 5717 5710 5702 5695 5689 5682 5673 5666 5661 5657 5650 5643 5635 5629 5622 5616 5610 5602 5595 5589 5583 5579 5575 5571 5568
5743 5744 5753 5762 5759 5761 5760 5756 5757 5758 5758 5754 5749 5745 5740 5735 5730 5724 5719 5713 5706 5699 5691 5684 5678 5670 5662 5657 5651 5644 5637 5630 5624 5617 5611 5605 5598 5592 5586 5581 5576 5572 5568 5565
5738 5749 5753 5755 5756 5756 5755 5753 5755 5756 5755 5751 5746 5742 5736 5731 5725 5720 5715 5708 5701 5694 5687 5680 5674 5667 5659 5653 5645 5637 5631 5625 5619 5612 5607 5600 5592 5588 5583 5577 5573 5568 5564 5560
5731 5739 5745 5749 5747 5748 5749 5752 5752 5752 5751 5747 5742 5738 5732 5726 5720 5715 5710 5704 5697 5689 5682 5676 5670 5662 5656 5648 5640 5632 5625 5620 5614 5609 5603 5594 5589 5583 5577 5572 5567 5559 5557 5553
5723 5728 5728 5732 5737 5740 5740 5741 5743 5743 5742 5741 5737 5731 5727 5722 5716 5710 5704 5698 5690 5683 5676 5671 5664 5657 5650 5642 5634 5626 5619 5614 5610 5604 5598 5592 5586 5582 5576 5568 5561 5554 5547 5541
5715 5720 5721 5724 5728 5730 5732 5734 5736 5735 5732 5730 5728 5724 5719 5713 5708 5702 5696 5690 5684 5678 5672 5665 5659 5652 5645 5638 5629 5621 5614 5608 5603 5599 5593 5588 5582 5577 5574 5569 5561 5554 5549 5542
5707 5710 5710 5711 5714 5718 5721 5725 5726 5724 5722 5720 5716 5713 5709 5703 5698 5692 5687 5683 5678 5672 5666 5659 5653 5646 5640 5633 5624 5616 5610 5605 5597 5593 5589 5584 5579 5574 5570 5567 5564 5562 5555 5546
5696 5698 5698 5700 5702 5705 5708 5710 5709 5707 5706 5704 5703 5698 5694 5690 5686 5682 5679 5675 5670 5664 5658 5653 5646 5640 5634 5627 5619 5612 5606 5601 5595 5590 5585 5581 5577 5573 5569 5565 5562 5560 5558 5553
5684 5686 5686 5685 5686 5688 5691 5692 5691 5690 5690 5688 5686 5683 5681 5679 5676 5673 5669 5664 5658 5654 5649 5644 5639 5634 5628 5620 5613 5606 5601 5594 5585 5583 5581 5578 5575 5571 5567 5564 5561 5559 5556 5553
5668 5667 5667 5667 5669 5671 5673 5675 5675 5674 5674 5673 5671 5670 5668 5665 5662 5658 5656 5653 5648 5644 5640 5636 5632 5628 5621 5613 5607 5602 5598 5594 5582 5578 5578 5575 5571 5568 5564 5560 5559 5557 5554 5551
5655 5654 5654 5654 5655 5655 5656 5657 5658 5658 5657 5657 5657 5655 5652 5649 5646 5644 5642 5641 5637 5634 5632 5628 5624 5618 5613 5607 5601 5597 5592 5587 5583 5578 5575 5571 5567 5564 5561 5558 5556 5554 5552 5550
5641 5640 5640 5640 5640 5640 5641 5641 5642 5643 5643 5643 5641 5639 5637 5636 5634 5631 5630 5627 5625 5623 5622 5619 5613 5608 5605 5600 5593 5588 5585 5581 5577 5574 5570 5565 5561 5560 5558 5556 5554 5551 5550 5548
5627 5627 5626 5627 5627 5627 5627 5627 5628 5628 5628 5628 5626 5625 5623 5622 5621 5619 5618 5616 5616 5614 5612 5608 5604 5600 5597 5592 5583 5582 5579 5575 5572 5569 5565 5563 5560 5557 5555 5553 5550 5549 5547 5546
5613 5614 5613 5614 5613 5614 5614 5613 5613 5613 5613 5613 5611 5610 5609 5608 5607 5606 5605 5605 5605 5602 5598 5594 5593 5591 5587 5582 5573 5574 5572 5569 5565 5563 5560 5557 5555 5552 5550 5549 5546 5545 5545 5543
5600 5600 5600 5600 5599 5599 5599 5598 5598 5598 5598 5597 5596 5595 5594 5593 5593 5592 5591 5590 5590 5584 5583 5585 5583 5578 5574 5567 5567 5565 5563 5561 5558 5556 5553 5551 5549 5547 5546 5544 5543 5543 5542 5540
5587 5586 5585 5585 5584 5584 5585 5585 5585 5583 5582 5581 5580 5579 5578 5576 5576 5576 5576 5577 5575 5568 5567 5570 5564 5558 5554 5555 5557 5556 5554 5552 5550 5548 5546 5545 5544 5543 5542 5541 5540 5539 5538 5537
5573 5572 5571 5571 5571 5570 5570 5571 5570 5568 5567 5566 5566 5565 5562 5562 5562 5562 5561 5558 5555 5551 5554 5551 5545 5542 5538 5545 5546 5546 5545 5543 5541 5540 5539 5538 5538 5538 5537 5536 5536 5535 5534 5532
5559 5558 5558 5556 5556 5557 5557 5557 5556 5555 5555 5555 5553 5551 5550 5547 5545 5545 5543 5542 5539 5537 5539 5537 5531 5528 5531 5535 5535 5536 5535 5534 5532 5531 5531 5530 5530 5531 5531 5530 5530 5530 5530 5529
5546 5545 5546 5543 5542 5541 5543 5543 5542 5541 5539 5539 5537 5536 5534 5532 5530 5530 5529 5528 5527 5523 5524 5524 5523 5519 5522 5523 5524 5524 5523 5522 5522 5522 5522 5521 5523 5523 5524 5524 5523 5524 5525 5525
5536 5535 5534 5534 5534 5532 5531 5529 5527 5526 5524 5522 5521 5520 5518 5517 5516 5516 5515 5514 5513 5511 5511 5511 5511 5511 5512 5512 5512 5512 5511 5512 5512 5512 5513 5513 5515 5516 5517 5517 5519 5519 5520 5522